Regional Weather Roundup
Issued by NWS

Home | Current Version | Previous Version | Graphics & Text | Print | Product List | Glossary On
Versions: 1 2 3 4 5 6 7 8 9 10 11 12 13 14 15 16 17 18 19 20 21 22 23 24 25 26 27 28 29 30 31 32 33 34 35 36 37 38 39 40 41 42 43 44 45 46 47 48 49 50
282
ASUS45 KSLC 261610
RWRUT

UTAH REGIONAL WEATHER ROUNDUP
NATIONAL WEATHER SERVICE SALT LAKE CITY UT
1000 AM MDT MON JUN 26 2017

UTZ001>011-023>025-261700-

NORTHERN UTAH

CITY           SKY/WX    TMP DP  RH WIND       PRES   REMARKS
BRIGHAM CITY   SUNNY     75  45  34 CALM      30.10F
DUGWAY         MOSUNNY   83  28  13 SW1       30.08F
HILL AFB       SUNNY     74  44  34 E15       30.13S
LOGAN          SUNNY     73  49  42 VRB3      30.13F
OGDEN          SUNNY     79  43  27 VRB3      30.10S
SALT LAKE CITY MOSUNNY   85  42  22 S10       30.08F
TOOELE VALLEY  SUNNY     81  46  30 NE6       30.10S
WENDOVER         N/A     82  31  15 SE6       30.08F
HEBER CITY     SUNNY     68  36  30 CALM      30.23F
WEST JORDAN    SUNNY     79  53  40 SE12      30.13S

$$

UTZ011>015-024>027-261700-

CENTRAL/NORTHEAST UTAH

CITY           SKY/WX    TMP DP  RH WIND       PRES   REMARKS
PROVO AIRPORT  SUNNY     75  46  35 CALM      30.14F
MOAB/CANYONLAN SUNNY     87  27  11 E10       30.12F
DELTA          SUNNY     81  30  16 E6        30.13S
PRICE          SUNNY     79  28  15 CALM      30.24F
VERNAL         SUNNY     76  33  21 S3        30.23F

$$

UTZ013>016-019>022-027-261700-

SOUTHERN UTAH

CITY           SKY/WX    TMP DP  RH WIND       PRES   REMARKS
BRYCE CANYON   SUNNY     78  30  17 N3        30.37F
CEDAR CITY     SUNNY     83  36  18 VRB5      30.19S
MILFORD        SUNNY     79  31  17 S9        30.14F
ST GEORGE      SUNNY     87  37  17 CALM      30.01F
HANKSVILLE     SUNNY     84  25  11 NW5       30.15F
BLANDING       MOSUNNY   77  40  26 S6        30.35S

$$

REGIONAL REPORTS     COLORADO/ARIZONA

CITY           SKY/WX    TMP DP  RH WIND       PRES   REMARKS
CRAIG, CO      SUNNY     74  33  22 NE9       30.30F
GRAND JUNCTION SUNNY     80  30  16 SE12      30.18F
RIFLE, CO      SUNNY     74  35  24 VRB5      30.25F
MONTROSE, CO   SUNNY     77  35  21 S3        30.26F
CORTEZ, CO     SUNNY     77  43  29 CALM      30.27F
COLORADO CITY    N/A     88  34  14 CALM      30.19F
PAGE, AZ       SUNNY     87  36  16 VRB3      30.12S
GRAND CANYON   SUNNY     80  36  20 S9        30.34S
KINGMAN, AZ    SUNNY     94  27   9 SW17G26   30.08R
FLAGSTAFF, AZ  SUNNY     74  43  32 S12       30.38S

$$

REGIONAL REPORTS    NEVADA/IDAHO/WYOMING

CITY           SKY/WX    TMP DP  RH WIND       PRES   REMARKS
LAS VEGAS, NV  SUNNY     97  12   4 SW8       29.91S HX  90
ELY, NY        SUNNY     78  32  18 NW3       30.21F
ELKO, NV       SUNNY     75  33  21 CALM      30.10F
POCATELLO, ID  SUNNY     77  51  40 NE9       30.12F
BURLEY, ID       N/A     72  51  47 MISG      30.05F
FORT BRIDGER,    N/A     66  35  31 N3        30.37S
EVANSTON, WY   SUNNY     67  38  34 E5        30.34R
ROCK SPRINGS,  SUNNY     68  29  23 CALM      30.33S
KEMMERER, WY     N/A     68  32  26 NE9       30.36S

$$




USA.gov is the U.S. government's official web portal to all federal, state and local government web resources and services.